星链-35717(STARLINK-35717)

导读

STARLINK-35717是美国太空探索技术公司SpaceX星链星座中的一颗卫星,于2025年12月31日发射入轨。星链星座旨在构建全球卫星互联网通信系统,该卫星承担为全球偏远地区、海洋空域等提供高速低延迟互联网接入服务的任务,进一步完善了星链星座的全球覆盖与服务能力。

基本信息
目录编号:
66839
目录名称:
STARLINK-35717
国际标识:
2025-280U
轨道中心:
EARTH
卫星名称:
星链-35717
卫星全名:
星链-35717(STARLINK-35717)
卫星状态:
在轨 (已飞行193 天)
发射日期:
2025-12-02 UTC
国别 :
美国 (US)
星等 :
--
轨道信息
数据来源 国际轨道数据
星历时间: 2026-06-13T04:56:31+0800
12小时前
查看轨道信息
半长轴: 6950.167km
偏心率: 0.0003223
轨道倾角: 70.001°
近地点辐角 267.687°
升交点赤经 94.456°
平近点角 92.392°
近地点: 569.789km
远地点: 574.271km
周期: 96.106分钟
每日圈数: 14.983385
详细信息
固有亮度:
5
最大亮度:
2.5
卫星平台:
Starlink V1.0
覆盖范围:
全球
运营商:
太空探索技术公司
运营商所在国:
美国
制造商(研发单位):
太空探索技术公司
制造商所在国:
美国
使用方式:
暂无
卫星简介
Starlink 计划是 SpaceX 推出的全球卫星互联网项目,通过发射低轨道卫星,为全球尤其是偏远地区提供高速、低延迟的互联网服务。自 2019 年起,Starlink 已部署数千颗卫星,旨在缩小全球数字鸿沟,推动互联网普及。该项目还为军事、航空等行业提供通信支持,带来广泛经济效益。
2D轨道图
3D轨道图
轨道高度分析图
轨道倾角分析图
轨道综合分析图
查看轨道综合分析图